TimeAKST,TemperatureF,Dew PointF,Humidity,Sea Level PressureIn,VisibilityMPH,Wind Direction,Wind SpeedMPH,Gust SpeedMPH,PrecipitationIn,Events,Conditions,WindDirDegrees,DateUTC
12:54 AM,24.1,21.9,91,30.14,1.8,WNW,4.6,-,0.01,Snow,Light Snow,290,2013-01-21 09:54:00
1:54 AM,25.0,23.0,92,30.13,1.8,WNW,8.1,-,0.03,Snow,Light Snow,290,2013-01-21 10:54:00
2:22 AM,24.8,23.0,93,30.12,1.8,WNW,10.4,-,0.01,Snow,Light Snow,290,2013-01-21 11:22:00
2:29 AM,24.8,23.0,93,30.12,2.0,WNW,8.1,-,0.02,Snow,Light Snow,290,2013-01-21 11:29:00
2:45 AM,24.8,23.0,93,30.12,2.0,WNW,10.4,-,0.02,Snow,Light Snow,290,2013-01-21 11:45:00
2:54 AM,24.1,21.9,91,30.12,1.8,WNW,11.5,-,0.02,Snow,Light Snow,300,2013-01-21 11:54:00
3:24 AM,24.8,23.0,93,30.12,2.0,WNW,12.7,-,0.01,Snow,Light Snow,290,2013-01-21 12:24:00
3:36 AM,24.8,23.0,93,30.12,1.8,WNW,15.0,-,0.02,Snow,Light Snow,290,2013-01-21 12:36:00
3:43 AM,24.8,23.0,93,30.12,2.0,WNW,15.0,-,0.02,Snow,Light Snow,290,2013-01-21 12:43:00
3:54 AM,25.0,23.0,92,30.13,2.0,WNW,13.8,-,0.02,Snow,Light Snow,290,2013-01-21 12:54:00
4:46 AM,24.8,24.8,100,30.11,2.0,WNW,12.7,-,0.01,Snow,Light Snow,290,2013-01-21 13:46:00
4:54 AM,25.0,24.1,96,30.12,2.0,WNW,12.7,-,0.01,Snow,Light Snow,290,2013-01-21 13:54:00
5:54 AM,27.0,25.0,92,30.11,2.5,WNW,10.4,-,0.00,Snow,Light Snow,290,2013-01-21 14:54:00
6:21 AM,26.6,24.8,93,30.10,3.0,WNW,9.2,-,0.01,Snow,Light Snow,290,2013-01-21 15:21:00
6:54 AM,26.1,25.0,96,30.11,3.0,WNW,9.2,-,0.01,Snow,Light Snow,290,2013-01-21 15:54:00
7:26 AM,26.6,24.8,93,30.09,2.5,WNW,10.4,-,0.01,Snow,Light Snow,290,2013-01-21 16:26:00
7:42 AM,26.6,24.8,93,30.09,3.0,WNW,9.2,-,0.01,Snow,Light Snow,290,2013-01-21 16:42:00
7:54 AM,26.1,24.1,92,30.10,4.0,WNW,10.4,-,0.01,Snow,Light Snow,290,2013-01-21 16:54:00
8:54 AM,26.1,25.0,96,30.11,3.0,WNW,8.1,-,0.00,Snow,Light Snow,290,2013-01-21 17:54:00
9:44 AM,26.6,24.8,93,30.10,2.5,WNW,9.2,-,0.01,Snow,Light Snow,290,2013-01-21 18:44:00
9:54 AM,26.1,25.0,96,30.11,2.0,WNW,11.5,-,0.01,Snow,Light Snow,290,2013-01-21 18:54:00
10:07 AM,26.6,24.8,93,30.10,1.8,WNW,10.4,-,0.00,Snow,Light Snow,290,2013-01-21 19:07:00
10:21 AM,26.6,24.8,93,30.10,1.2,WNW,11.5,-,0.00,Snow,Light Snow,290,2013-01-21 19:21:00
10:54 AM,27.0,26.1,96,30.11,1.8,West,10.4,-,0.01,Snow,Light Snow,280,2013-01-21 19:54:00
11:02 AM,26.6,26.6,100,30.10,1.8,WNW,10.4,-,0.00,Snow,Light Snow,290,2013-01-21 20:02:00
11:10 AM,26.6,26.6,100,30.09,2.0,WNW,11.5,-,0.00,Snow,Light Snow,290,2013-01-21 20:10:00
11:31 AM,28.4,26.6,93,30.09,4.0,WNW,9.2,-,0.00,Snow,Light Snow,290,2013-01-21 20:31:00
11:40 AM,28.4,26.6,93,30.09,4.0,WNW,9.2,-,0.00,Snow,Light Snow,290,2013-01-21 20:40:00
11:54 AM,28.0,26.1,92,30.09,2.5,WNW,10.4,-,0.00,Snow,Light Snow,290,2013-01-21 20:54:00
12:09 PM,28.4,26.6,93,30.08,3.0,WNW,10.4,-,0.01,Snow,Light Snow,290,2013-01-21 21:09:00
12:54 PM,28.0,27.0,96,30.09,4.0,WNW,12.7,-,0.01,,Overcast,290,2013-01-21 21:54:00
1:06 PM,28.4,26.6,93,30.07,6.0,West,11.5,-,0.00,,Overcast,280,2013-01-21 22:06:00
1:22 PM,28.4,26.6,93,30.07,3.0,WNW,11.5,-,0.00,,Overcast,290,2013-01-21 22:22:00
1:31 PM,28.4,26.6,93,30.07,2.5,West,10.4,-,0.00,Snow,Light Snow,280,2013-01-21 22:31:00
1:43 PM,28.4,26.6,93,30.06,3.0,WNW,10.4,-,0.00,Snow,Light Snow,290,2013-01-21 22:43:00
1:54 PM,28.9,28.0,96,30.07,5.0,WNW,11.5,-,0.00,,Overcast,290,2013-01-21 22:54:00
2:07 PM,30.2,28.4,93,30.06,4.0,WNW,12.7,-,0.00,,Overcast,290,2013-01-21 23:07:00
2:16 PM,28.4,26.6,93,30.06,4.0,WNW,11.5,-,0.00,,Overcast,290,2013-01-21 23:16:00
2:26 PM,28.4,26.6,93,30.05,4.0,WNW,11.5,-,0.00,,Overcast,290,2013-01-21 23:26:00
2:54 PM,28.9,28.0,96,30.05,4.0,WNW,9.2,-,0.00,,Overcast,290,2013-01-21 23:54:00
3:00 PM,30.2,28.4,93,30.04,2.5,WNW,8.1,-,N/A,,Overcast,300,2013-01-22 00:00:00
3:24 PM,30.2,28.4,93,30.04,1.8,WNW,9.2,-,N/A,,Overcast,300,2013-01-22 00:24:00
3:54 PM,28.9,28.0,96,30.04,2.5,WNW,12.7,-,N/A,,Overcast,290,2013-01-22 00:54:00
4:03 PM,28.4,28.4,100,30.03,4.0,WNW,12.7,-,N/A,,Overcast,290,2013-01-22 01:03:00
4:54 PM,30.9,28.9,92,30.01,9.0,WNW,10.4,-,N/A,,Overcast,290,2013-01-22 01:54:00
5:54 PM,30.0,28.0,92,30.00,10.0,WNW,13.8,-,N/A,,Overcast,290,2013-01-22 02:54:00
6:54 PM,30.0,28.0,92,29.98,5.0,WNW,15.0,-,0.00,Snow,Light Snow,300,2013-01-22 03:54:00
7:13 PM,30.2,28.4,93,29.97,9.0,NW,16.1,-,0.00,,Overcast,310,2013-01-22 04:13:00
7:37 PM,30.2,28.4,93,29.96,10.0,WNW,12.7,-,0.00,,Overcast,290,2013-01-22 04:37:00
7:54 PM,30.9,28.9,92,29.96,10.0,WNW,12.7,-,0.00,,Overcast,300,2013-01-22 04:54:00
8:54 PM,33.1,30.0,89,29.95,10.0,WNW,16.1,23.0,N/A,,Overcast,300,2013-01-22 05:54:00
9:54 PM,32.0,28.9,88,29.94,10.0,WNW,15.0,-,N/A,,Scattered Clouds,300,2013-01-22 06:54:00
10:54 PM,30.9,28.9,92,29.92,10.0,WNW,15.0,-,N/A,,Scattered Clouds,300,2013-01-22 07:54:00
11:54 PM,30.9,28.9,92,29.91,10.0,WNW,17.3,-,N/A,,Partly Cloudy,290,2013-01-22 08:54:00